Time,TemperatureF,DewpointF,PressureIn,WindDirection,WindDirectionDegrees,WindSpeedMPH,WindSpeedGustMPH,Humidity,HourlyPrecipIn,Conditions,Clouds,dailyrainin,SoftwareType,DateUTC
2013-02-25 00:03:00,30.0,-99.9,-100.00,South,187,3.0,-999.0,-999,0.00,,,0.00,,2013-02-25 06:03:00,
2013-02-25 00:12:00,30.0,-99.9,-100.00,South,187,3.0,-999.0,-999,0.00,,,0.00,,2013-02-25 06:12:00,
2013-02-25 00:22:00,30.0,-99.9,-100.00,South,187,3.0,-999.0,-999,0.00,,,0.00,,2013-02-25 06:22:00,
2013-02-25 00:32:00,28.0,-99.9,-100.00,NW,321,3.0,-999.0,-999,0.00,,,0.00,,2013-02-25 06:32:00,
2013-02-25 00:42:00,28.0,-99.9,-100.00,NW,321,3.0,-999.0,-999,0.00,,,0.00,,2013-02-25 06:42:00,
2013-02-25 00:52:00,28.0,-99.9,-100.00,NW,321,3.0,-999.0,-999,0.00,,,0.00,,2013-02-25 06:52:00,
2013-02-25 01:01:00,28.0,-99.9,-100.00,NW,309,2.0,-999.0,-999,0.00,,,0.00,,2013-02-25 07:01:00,
2013-02-25 01:12:00,28.0,-99.9,-100.00,NW,309,2.0,-999.0,-999,0.00,,,0.00,,2013-02-25 07:12:00,
2013-02-25 01:22:00,28.0,-99.9,-100.00,NW,309,2.0,-999.0,-999,0.00,,,0.00,,2013-02-25 07:22:00,
2013-02-25 01:32:00,28.0,-99.9,-100.00,West,281,3.0,-999.0,-999,0.00,,,0.00,,2013-02-25 07:32:00,
2013-02-25 01:42:00,28.0,-99.9,-100.00,West,281,3.0,-999.0,-999,0.00,,,0.00,,2013-02-25 07:42:00,
2013-02-25 01:52:00,28.0,-99.9,-100.00,West,281,3.0,-999.0,-999,0.00,,,0.00,,2013-02-25 07:52:00,
2013-02-25 02:01:00,27.0,-99.9,-100.00,WSW,257,3.0,-999.0,-999,0.00,,,0.00,,2013-02-25 08:01:00,
2013-02-25 02:11:00,27.0,-99.9,-100.00,WSW,257,3.0,-999.0,-999,0.00,,,0.00,,2013-02-25 08:11:00,
2013-02-25 02:22:00,27.0,-99.9,-100.00,WSW,257,3.0,-999.0,-999,0.00,,,0.00,,2013-02-25 08:22:00,
2013-02-25 02:32:00,27.0,-99.9,-100.00,West,274,2.0,-999.0,-999,0.00,,,0.00,,2013-02-25 08:32:00,
2013-02-25 02:42:00,27.0,-99.9,-100.00,West,274,2.0,-999.0,-999,0.00,,,0.00,,2013-02-25 08:42:00,
2013-02-25 02:52:00,27.0,-99.9,-100.00,West,274,2.0,-999.0,-999,0.00,,,0.00,,2013-02-25 08:52:00,
2013-02-25 03:02:00,27.0,-99.9,-100.00,South,170,3.0,-999.0,-999,0.00,,,0.00,,2013-02-25 09:02:00,
2013-02-25 03:12:00,27.0,-99.9,-100.00,South,170,3.0,-999.0,-999,0.00,,,0.00,,2013-02-25 09:12:00,
2013-02-25 03:21:00,27.0,-99.9,-100.00,South,170,3.0,-999.0,-999,0.00,,,0.00,,2013-02-25 09:21:00,
2013-02-25 03:32:00,28.0,-99.9,-100.00,South,180,4.0,-999.0,-999,0.00,,,0.00,,2013-02-25 09:32:00,
2013-02-25 03:42:00,28.0,-99.9,-100.00,South,180,4.0,-999.0,-999,0.00,,,0.00,,2013-02-25 09:42:00,
2013-02-25 03:52:00,28.0,-99.9,-100.00,South,180,4.0,-999.0,-999,0.00,,,0.00,,2013-02-25 09:52:00,
2013-02-25 04:01:00,26.0,-99.9,-100.00,SW,230,3.0,-999.0,-999,0.00,,,0.00,,2013-02-25 10:01:00,
2013-02-25 04:11:00,26.0,-99.9,-100.00,SW,230,3.0,-999.0,-999,0.00,,,0.00,,2013-02-25 10:11:00,
2013-02-25 04:22:00,26.0,-99.9,-100.00,SW,230,3.0,-999.0,-999,0.00,,,0.00,,2013-02-25 10:22:00,
2013-02-25 04:32:00,26.0,-99.9,-100.00,WNW,301,1.0,-999.0,-999,0.00,,,0.00,,2013-02-25 10:32:00,
2013-02-25 04:42:00,26.0,-99.9,-100.00,WNW,301,1.0,-999.0,-999,0.00,,,0.00,,2013-02-25 10:42:00,
2013-02-25 04:52:00,26.0,-99.9,-100.00,WNW,301,1.0,-999.0,-999,0.00,,,0.00,,2013-02-25 10:52:00,
2013-02-25 05:01:00,26.0,-99.9,-100.00,NW,311,2.0,-999.0,-999,0.00,,,0.00,,2013-02-25 11:01:00,
2013-02-25 05:11:00,26.0,-99.9,-100.00,NW,311,2.0,-999.0,-999,0.00,,,0.00,,2013-02-25 11:11:00,
2013-02-25 05:22:00,26.0,-99.9,-100.00,NW,311,2.0,-999.0,-999,0.00,,,0.00,,2013-02-25 11:22:00,
2013-02-25 05:32:00,25.0,-99.9,-100.00,NW,310,2.0,-999.0,-999,0.00,,,0.00,,2013-02-25 11:32:00,
2013-02-25 05:42:00,25.0,-99.9,-100.00,NW,310,2.0,-999.0,-999,0.00,,,0.00,,2013-02-25 11:42:00,
2013-02-25 05:52:00,25.0,-99.9,-100.00,NW,310,2.0,-999.0,-999,0.00,,,0.00,,2013-02-25 11:52:00,
2013-02-25 06:02:00,25.0,-99.9,-100.00,NW,314,2.0,-999.0,-999,0.00,,,0.00,,2013-02-25 12:02:00,
2013-02-25 06:11:00,25.0,-99.9,-100.00,NW,314,2.0,-999.0,-999,0.00,,,0.00,,2013-02-25 12:11:00,
2013-02-25 06:22:00,25.0,-99.9,-100.00,NW,314,2.0,-999.0,-999,0.00,,,0.00,,2013-02-25 12:22:00,
2013-02-25 06:32:00,25.0,-99.9,-100.00,NW,307,5.0,-999.0,-999,0.00,,,0.00,,2013-02-25 12:32:00,
2013-02-25 06:43:00,25.0,-99.9,-100.00,NW,307,5.0,-999.0,-999,0.00,,,0.00,,2013-02-25 12:43:00,
2013-02-25 06:57:00,25.0,-99.9,-100.00,NW,307,5.0,-999.0,-999,0.00,,,0.00,,2013-02-25 12:57:00,
2013-02-25 07:03:00,25.0,-99.9,-100.00,WNW,292,3.0,-999.0,-999,0.00,,,0.00,,2013-02-25 13:03:00,
2013-02-25 07:12:00,25.0,-99.9,-100.00,WNW,292,3.0,-999.0,-999,0.00,,,0.00,,2013-02-25 13:12:00,
2013-02-25 07:23:00,25.0,-99.9,-100.00,WNW,292,3.0,-999.0,-999,0.00,,,0.00,,2013-02-25 13:23:00,
2013-02-25 07:32:00,25.0,-99.9,-100.00,WSW,243,3.0,-999.0,-999,0.00,,,0.00,,2013-02-25 13:32:00,
2013-02-25 07:42:00,25.0,-99.9,-100.00,WSW,243,3.0,-999.0,-999,0.00,,,0.00,,2013-02-25 13:42:00,
2013-02-25 07:53:00,25.0,-99.9,-100.00,WSW,243,3.0,-999.0,-999,0.00,,,0.00,,2013-02-25 13:53:00,
2013-02-25 08:04:00,26.0,-99.9,-100.00,WNW,284,1.0,-999.0,-999,0.00,,,0.00,,2013-02-25 14:04:00,
2013-02-25 08:18:00,26.0,-99.9,-100.00,WNW,284,1.0,-999.0,-999,0.00,,,0.00,,2013-02-25 14:18:00,
2013-02-25 08:32:00,31.0,-99.9,-100.00,SSE,152,2.0,-999.0,-999,0.00,,,0.00,,2013-02-25 14:32:00,
2013-02-25 08:42:00,31.0,-99.9,-100.00,SSE,152,2.0,-999.0,-999,0.00,,,0.00,,2013-02-25 14:42:00,
2013-02-25 08:52:00,31.0,-99.9,-100.00,SSE,152,2.0,-999.0,-999,0.00,,,0.00,,2013-02-25 14:52:00,
2013-02-25 09:03:00,32.0,-99.9,-100.00,NNW,345,2.0,-999.0,-999,0.00,,,0.00,,2013-02-25 15:03:00,
2013-02-25 09:11:00,32.0,-99.9,-100.00,NNW,345,2.0,-999.0,-999,0.00,,,0.00,,2013-02-25 15:11:00,
2013-02-25 09:22:00,32.0,-99.9,-100.00,NNW,345,2.0,-999.0,-999,0.00,,,0.00,,2013-02-25 15:22:00,
2013-02-25 09:32:00,35.0,-99.9,-100.00,NNE,17,4.0,-999.0,-999,-99.99,,,-99.99,,2013-02-25 15:32:00,
2013-02-25 09:42:00,35.0,-99.9,-100.00,NNE,17,4.0,-999.0,-999,-99.99,,,-99.99,,2013-02-25 15:42:00,
2013-02-25 09:52:00,35.0,-99.9,-100.00,NNE,17,4.0,-999.0,-999,-99.99,,,-99.99,,2013-02-25 15:52:00,
2013-02-25 10:02:00,36.0,-99.9,-100.00,North,9,4.0,-999.0,-999,-99.99,,,-99.99,,2013-02-25 16:02:00,
2013-02-25 10:12:00,36.0,-99.9,-100.00,North,9,4.0,-999.0,-999,-99.99,,,-99.99,,2013-02-25 16:12:00,
2013-02-25 10:22:00,36.0,-99.9,-100.00,North,9,4.0,-999.0,-999,-99.99,,,-99.99,,2013-02-25 16:22:00,
2013-02-25 10:32:00,35.0,-99.9,-100.00,NNW,340,3.0,-999.0,-999,0.00,,,-99.99,,2013-02-25 16:32:00,
2013-02-25 10:42:00,35.0,-99.9,-100.00,NNW,340,3.0,-999.0,-999,0.00,,,-99.99,,2013-02-25 16:42:00,
2013-02-25 10:52:00,35.0,-99.9,-100.00,NNW,340,3.0,-999.0,-999,0.00,,,-99.99,,2013-02-25 16:52:00,
2013-02-25 11:02:00,34.0,-99.9,-100.00,NNW,338,5.0,-999.0,-999,0.00,,,-99.99,,2013-02-25 17:02:00,
2013-02-25 11:11:00,34.0,-99.9,-100.00,NNW,338,5.0,-999.0,-999,0.00,,,-99.99,,2013-02-25 17:11:00,
2013-02-25 11:22:00,34.0,-99.9,-100.00,NNW,338,5.0,-999.0,-999,0.00,,,-99.99,,2013-02-25 17:22:00,
2013-02-25 11:32:00,37.0,-99.9,-100.00,NNW,341,3.0,-999.0,-999,0.00,,,-99.99,,2013-02-25 17:32:00,
2013-02-25 11:42:00,37.0,-99.9,-100.00,NNW,341,3.0,-999.0,-999,0.00,,,-99.99,,2013-02-25 17:42:00,
2013-02-25 11:52:00,37.0,-99.9,-100.00,NNW,341,3.0,-999.0,-999,0.00,,,-99.99,,2013-02-25 17:52:00,
2013-02-25 12:02:00,41.0,-99.9,-100.00,NNW,343,3.0,-999.0,-999,0.00,,,-99.99,,2013-02-25 18:02:00,
2013-02-25 12:12:00,41.0,-99.9,-100.00,NNW,343,3.0,-999.0,-999,0.00,,,-99.99,,2013-02-25 18:12:00,
2013-02-25 12:22:00,41.0,-99.9,-100.00,NNW,343,3.0,-999.0,-999,0.00,,,-99.99,,2013-02-25 18:22:00,
2013-02-25 12:33:00,41.0,-99.9,-100.00,NNW,332,3.0,-999.0,-999,0.00,,,-99.99,,2013-02-25 18:33:00,
2013-02-25 12:42:00,41.0,-99.9,-100.00,NNW,332,3.0,-999.0,-999,0.00,,,-99.99,,2013-02-25 18:42:00,
2013-02-25 12:52:00,41.0,-99.9,-100.00,NNW,332,3.0,-999.0,-999,0.00,,,-99.99,,2013-02-25 18:52:00,
2013-02-25 13:02:00,40.0,-99.9,-100.00,NW,324,3.0,-999.0,-999,0.00,,,-99.99,,2013-02-25 19:02:00,
2013-02-25 13:11:00,40.0,-99.9,-100.00,NW,324,3.0,-999.0,-999,0.00,,,-99.99,,2013-02-25 19:11:00,
2013-02-25 13:22:00,40.0,-99.9,-100.00,NW,324,3.0,-999.0,-999,0.00,,,-99.99,,2013-02-25 19:22:00,
2013-02-25 13:32:00,43.0,-99.9,-100.00,North,2,1.0,-999.0,-999,0.00,,,-99.99,,2013-02-25 19:32:00,
2013-02-25 13:42:00,43.0,-99.9,-100.00,North,2,1.0,-999.0,-999,0.00,,,-99.99,,2013-02-25 19:42:00,
2013-02-25 13:52:00,43.0,-99.9,-100.00,North,2,1.0,-999.0,-999,0.00,,,-99.99,,2013-02-25 19:52:00,
2013-02-25 14:01:00,43.0,-99.9,-100.00,ENE,74,8.0,-999.0,-999,0.00,,,-99.99,,2013-02-25 20:01:00,
2013-02-25 14:11:00,43.0,-99.9,-100.00,ENE,74,8.0,-999.0,-999,0.00,,,-99.99,,2013-02-25 20:11:00,
2013-02-25 14:22:00,43.0,-99.9,-100.00,ENE,74,8.0,-999.0,-999,0.00,,,-99.99,,2013-02-25 20:22:00,
2013-02-25 14:32:00,43.0,-99.9,-100.00,ENE,65,7.0,-999.0,-999,0.00,,,-99.99,,2013-02-25 20:32:00,
2013-02-25 14:42:00,43.0,-99.9,-100.00,ENE,65,7.0,-999.0,-999,0.00,,,-99.99,,2013-02-25 20:42:00,
2013-02-25 14:52:00,43.0,-99.9,-100.00,ENE,65,7.0,-999.0,-999,0.00,,,-99.99,,2013-02-25 20:52:00,
2013-02-25 15:02:00,43.0,-99.9,-100.00,East,82,6.0,-999.0,-999,0.00,,,-99.99,,2013-02-25 21:02:00,
2013-02-25 15:11:00,43.0,-99.9,-100.00,East,82,6.0,-999.0,-999,0.00,,,-99.99,,2013-02-25 21:11:00,
2013-02-25 15:22:00,43.0,-99.9,-100.00,East,82,6.0,-999.0,-999,0.00,,,-99.99,,2013-02-25 21:22:00,
2013-02-25 15:32:00,42.0,-99.9,-100.00,ENE,69,5.0,-999.0,-999,0.00,,,-99.99,,2013-02-25 21:32:00,
2013-02-25 15:42:00,42.0,-99.9,-100.00,ENE,69,5.0,-999.0,-999,0.00,,,-99.99,,2013-02-25 21:42:00,
2013-02-25 15:52:00,42.0,-99.9,-100.00,ENE,69,5.0,-999.0,-999,0.00,,,-99.99,,2013-02-25 21:52:00,
2013-02-25 16:02:00,42.0,-99.9,-100.00,ENE,66,7.0,-999.0,-999,0.00,,,-99.99,,2013-02-25 22:02:00,
2013-02-25 16:11:00,42.0,-99.9,-100.00,ENE,66,7.0,-999.0,-999,0.00,,,-99.99,,2013-02-25 22:11:00,
2013-02-25 16:22:00,42.0,-99.9,-100.00,ENE,66,7.0,-999.0,-999,0.00,,,-99.99,,2013-02-25 22:22:00,
2013-02-25 16:32:00,40.0,-99.9,-100.00,North,359,5.0,-999.0,-999,0.00,,,-99.99,,2013-02-25 22:32:00,
2013-02-25 16:42:00,40.0,-99.9,-100.00,North,359,5.0,-999.0,-999,0.00,,,-99.99,,2013-02-25 22:42:00,
2013-02-25 16:52:00,40.0,-99.9,-100.00,North,359,5.0,-999.0,-999,0.00,,,-99.99,,2013-02-25 22:52:00,
2013-02-25 17:01:00,41.0,-99.9,-100.00,North,4,3.0,-999.0,-999,0.00,,,-99.99,,2013-02-25 23:01:00,
2013-02-25 17:11:00,41.0,-99.9,-100.00,North,4,3.0,-999.0,-999,0.00,,,-99.99,,2013-02-25 23:11:00,
2013-02-25 17:22:00,41.0,-99.9,-100.00,North,4,3.0,-999.0,-999,0.00,,,-99.99,,2013-02-25 23:22:00,
2013-02-25 17:32:00,40.0,-99.9,-100.00,North,-999,3.0,-999.0,-999,0.00,,,-99.99,,2013-02-25 23:32:00,
2013-02-25 17:42:00,40.0,-99.9,-100.00,North,-999,3.0,-999.0,-999,0.00,,,-99.99,,2013-02-25 23:42:00,
2013-02-25 17:52:00,40.0,-99.9,-100.00,North,-999,3.0,-999.0,-999,0.00,,,-99.99,,2013-02-25 23:52:00,
2013-02-25 18:02:00,38.0,-99.9,-100.00,North,4,6.0,-999.0,-999,0.00,,,-99.99,,2013-02-26 00:02:00,
2013-02-25 18:12:00,38.0,-99.9,-100.00,North,4,6.0,-999.0,-999,0.00,,,-99.99,,2013-02-26 00:12:00,
2013-02-25 18:22:00,38.0,-99.9,-100.00,North,4,6.0,-999.0,-999,0.00,,,-99.99,,2013-02-26 00:22:00,
2013-02-25 18:32:00,38.0,-99.9,-100.00,North,3,6.0,-999.0,-999,0.00,,,-99.99,,2013-02-26 00:32:00,
2013-02-25 18:42:00,38.0,-99.9,-100.00,North,3,6.0,-999.0,-999,0.00,,,-99.99,,2013-02-26 00:42:00,
2013-02-25 18:52:00,38.0,-99.9,-100.00,North,3,6.0,-999.0,-999,0.00,,,-99.99,,2013-02-26 00:52:00,
2013-02-25 19:02:00,38.0,-99.9,-100.00,NNE,14,7.0,-999.0,-999,0.00,,,-99.99,,2013-02-26 01:02:00,
2013-02-25 19:11:00,38.0,-99.9,-100.00,NNE,14,7.0,-999.0,-999,0.00,,,-99.99,,2013-02-26 01:11:00,
2013-02-25 19:22:00,38.0,-99.9,-100.00,NNE,14,7.0,-999.0,-999,0.00,,,-99.99,,2013-02-26 01:22:00,
2013-02-25 19:32:00,39.0,-99.9,-100.00,NNW,339,9.0,-999.0,-999,0.00,,,-99.99,,2013-02-26 01:32:00,
2013-02-25 19:42:00,39.0,-99.9,-100.00,NNW,339,9.0,-999.0,-999,0.00,,,-99.99,,2013-02-26 01:42:00,
2013-02-25 19:52:00,39.0,-99.9,-100.00,NNW,339,9.0,-999.0,-999,0.00,,,-99.99,,2013-02-26 01:52:00,
2013-02-25 20:02:00,39.0,-99.9,-100.00,NNW,338,3.0,-999.0,-999,0.00,,,-99.99,,2013-02-26 02:02:00,
2013-02-25 20:12:00,39.0,-99.9,-100.00,NNW,338,3.0,-999.0,-999,0.00,,,-99.99,,2013-02-26 02:12:00,
2013-02-25 20:22:00,39.0,-99.9,-100.00,NNW,338,3.0,-999.0,-999,0.00,,,-99.99,,2013-02-26 02:22:00,
2013-02-25 20:30:00,39.0,-99.9,-100.00,ENE,71,8.0,-999.0,-999,0.00,,,-99.99,,2013-02-26 02:30:00,
2013-02-25 20:32:00,38.0,-99.9,-100.00,ENE,61,4.0,-999.0,-999,0.00,,,-99.99,,2013-02-26 02:32:00,
2013-02-25 20:42:00,38.0,-99.9,-100.00,ENE,61,4.0,-999.0,-999,0.00,,,-99.99,,2013-02-26 02:42:00,
2013-02-25 20:52:00,38.0,-99.9,-100.00,ENE,61,4.0,-999.0,-999,0.00,,,-99.99,,2013-02-26 02:52:00,
2013-02-25 21:02:00,39.0,-99.9,-100.00,ENE,71,8.0,-999.0,-999,0.00,,,-99.99,,2013-02-26 03:02:00,
2013-02-25 21:12:00,39.0,-99.9,-100.00,ENE,71,8.0,-999.0,-999,0.00,,,-99.99,,2013-02-26 03:12:00,
2013-02-25 21:22:00,39.0,-99.9,-100.00,ENE,71,8.0,-999.0,-999,0.00,,,-99.99,,2013-02-26 03:22:00,
2013-02-25 21:42:00,39.0,-99.9,-100.00,East,88,11.0,-999.0,-999,0.00,,,-99.99,,2013-02-26 03:42:00,
2013-02-25 21:52:00,39.0,-99.9,-100.00,East,88,11.0,-999.0,-999,0.00,,,-99.99,,2013-02-26 03:52:00,
2013-02-25 22:00:00,38.0,-99.9,-100.00,East,95,9.0,-999.0,-999,0.00,,,-99.99,,2013-02-26 04:00:00,
2013-02-25 22:02:00,39.0,-99.9,-100.00,East,88,10.0,-999.0,-999,0.00,,,-99.99,,2013-02-26 04:02:00,
2013-02-25 22:12:00,39.0,-99.9,-100.00,East,88,10.0,-999.0,-999,0.00,,,-99.99,,2013-02-26 04:12:00,
2013-02-25 22:22:00,39.0,-99.9,-100.00,East,88,10.0,-999.0,-999,0.00,,,-99.99,,2013-02-26 04:22:00,
2013-02-25 22:32:00,38.0,-99.9,-100.00,East,95,9.0,-999.0,-999,0.00,,,-99.99,,2013-02-26 04:32:00,
2013-02-25 22:43:00,38.0,-99.9,-100.00,East,95,9.0,-999.0,-999,0.00,,,-99.99,,2013-02-26 04:43:00,
2013-02-25 22:52:00,38.0,-99.9,-100.00,East,95,9.0,-999.0,-999,0.00,,,-99.99,,2013-02-26 04:52:00,
2013-02-25 23:32:00,38.0,-99.9,-100.00,ENE,71,10.0,-999.0,-999,0.00,,,-99.99,,2013-02-26 05:32:00,
2013-02-25 23:43:00,38.0,-99.9,-100.00,ENE,71,10.0,-999.0,-999,0.00,,,-99.99,,2013-02-26 05:43:00,
2013-02-25 23:52:00,38.0,-99.9,-100.00,ENE,71,10.0,-999.0,-999,0.00,,,-99.99,,2013-02-26 05:52:00,